Wind_Speed
5 5 6 5 5 5 5 5 5 5 5 5 5 5 6 5 6 6 5 4 4 4 4 4 4 5 5 5 4 5 5 5 5 5 5 6 6 6 7 8 7 8 8
5 5 5 5 5 4 5 5 5 5 5 5 5 5 6 6 6 6 5 5 4 3 4 4 5 5 5 5 5 5 5 6 6 6 7 7 7 8 9 8 9 9 9
5 4 5 5 5 5 5 5 6 6 5 5 5 6 6 6 6 5 5 5 4 4 4 4 5 5 5 6 6 6 6 6 7 7 7 8 9 8 9 10 10 10 10
5 5 4 5 5 5 5 5 6 6 6 6 5 6 6 6 6 6 5 5 5 4 4 4 5 5 6 6 7 7 7 7 8 8 9 9 10 9 10 11 10 10 11
6 6 5 5 5 5 5 5 6 6 7 7 7 7 7 7 7 7 5 5 6 6 6 5 5 6 6 7 8 8 8 8 8 9 9 10 11 11 11 11 11 11 12
7 7 6 6 6 6 6 6 6 6 7 7 8 8 9 9 9 7 6 6 7 7 7 6 7 7 8 8 9 9 9 9 9 10 11 12 12 12 12 13 13 13 13
8 8 7 7 7 7 7 7 7 7 8 8 8 9 9 9 9 9 8 8 8 8 8 7 7 8 9 9 10 10 10 11 11 11 12 13 13 13 13 14 15 14 14
9 10 10 9 9 9 9 9 8 8 9 9 9 10 10 10 10 11 10 9 9 9 9 9 9 9 10 10 11 11 11 11 11 12 13 13 13 14 14 15 15 14 14
11 11 11 12 11 11 12 10 10 10 10 10 10 11 11 11 11 12 12 12 12 11 11 11 11 11 12 12 12 12 13 13 14 14 14 15 15 15 15 16 16 16 16
13 13 13 13 13 13 13 12 12 12 12 12 12 12 12 13 13 14 14 13 13 13 12 12 13 13 14 13 13 13 14 15 15 15 16 16 16 16 17 17 18 18 19
14 14 14 15 15 14 13 14 14 14 14 13 13 14 14 14 14 15 15 15 14 14 15 14 14 14 14 15 14 15 15 16 16 17 17 17 18 18 19 19 19 20 21
17 17 17 17 17 16 16 15 15 15 16 15 15 15 15 16 16 16 16 16 16 16 15 16 16 16 16 16 16 17 17 17 18 18 19 19 19 20 21 21 22 22 23
18 18 19 18 18 18 18 17 17 17 18 17 17 17 17 18 18 18 19 18 18 18 17 18 18 18 18 18 18 19 19 20 20 20 21 21 21 22 22 23 23 23 24
20 20 20 19 19 20 20 19 19 19 19 19 19 19 19 19 19 19 19 20 19 19 20 19 20 20 20 20 21 21 21 22 22 23 23 23 24 24 24 25 25 25 25
22 22 22 21 21 21 21 21 20 20 20 20 20 21 21 21 21 21 21 21 21 20 20 20 21 22 22 23 23 23 24 24 25 25 25 26 26 26 27 27 28 27 28
25 24 24 23 23 24 24 23 22 22 22 23 22 22 23 22 22 22 23 23 23 23 23 22 22 23 24 24 25 26 26 26 27 28 28 28 27 28 29 30 30 30 30
26 25 26 26 25 26 25 25 25 25 25 25 25 24 25 24 24 24 25 25 25 26 25 25 24 24 25 25 26 27 28 29 29 29 29 29 29 30 31 32 32 32 32
28 27 28 29 27 27 28 28 28 28 27 27 27 27 26 27 27 27 27 27 26 26 27 27 26 26 27 27 27 28 29 30 31 31 31 31 31 32 33 33 33 33 33
30 29 29 30 30 30 30 30 30 29 29 29 29 29 29 29 28 28 28 28 28 29 29 28 28 28 28 29 29 30 30 31 31 32 32 32 33 33 35 34 33 33 33
32 30 30 31 31 32 32 31 31 30 30 30 30 30 30 30 31 30 30 30 30 31 31 30 30 30 31 31 31 32 32 32 32 33 33 33 33 34 35 35 34 33 33
33 32 33 33 33 33 33 33 32 31 31 31 30 30 31 31 31 31 31 32 32 32 32 32 31 32 32 33 33 33 34 34 34 33 33 33 34 34 34 34 34 34 34
34 34 34 34 34 34 34 33 32 31 31 31 31 31 31 32 33 33 33 33 34 34 34 33 33 33 34 34 35 35 35 35 35 35 34 34 34 35 35 36 36 36 36
34 34 35 35 35 35 34 34 33 33 33 33 33 33 33 33 34 34 34 35 35 35 34 34 34 34 35 36 36 36 36 37 37 36 35 35 35 36 36 37 37 37 36
36 36 35 35 35 36 36 35 34 34 34 34 35 35 35 34 35 35 35 35 35 35 34 35 35 35 35 36 37 37 37 38 37 37 36 36 36 37 37 37 38 37 36
37 37 37 37 37 36 36 35 35 35 35 35 35 35 35 34 34 35 35 35 36 36 35 35 35 36 36 37 37 38 38 38 38 38 37 36 36 36 37 36 37 36 36
37 37 36 37 36 36 36 36 36 36 36 36 35 35 35 35 35 35 35 34 35 35 35 35 35 36 36 37 38 39 40 39 39 38 37 36 36 36 36 36 36 35 35
Wind_Direction
5 9 17 26 30 33 30 26 25 26 24 24 22 16 13 12 12 14 12 10 10 12 12 7 358 356 350 351 349 346 340 329 319 324 329 331 328 330 327 326 327 324 323
0 5 11 20 26 29 30 25 23 17 15 11 6 7 3 3 5 4 6 6 360 354 353 358 356 350 346 342 342 334 334 333 326 319 320 326 329 325 317 317 320 323 323
346 354 6 13 17 16 15 15 15 11 6 4 358 352 352 355 355 353 352 353 351 340 344 345 346 345 339 340 336 331 327 324 323 317 313 315 319 317 313 316 318 318 318
336 335 345 353 357 359 4 1 358 353 348 348 345 341 336 337 340 339 336 339 339 332 324 324 326 329 332 328 326 326 320 316 319 320 314 312 314 308 306 309 310 311 313
311 323 328 329 336 342 347 349 348 343 339 333 328 328 328 328 328 328 328 328 331 332 320 307 307 314 319 317 316 315 311 311 315 318 318 316 314 311 312 309 305 307 311
299 306 311 313 316 323 327 332 333 332 333 329 324 319 322 323 324 324 320 318 319 324 322 313 306 305 311 311 311 310 304 304 309 309 311 312 312 312 310 308 308 305 306
290 291 295 300 302 309 311 317 321 322 322 321 318 316 319 324 327 325 319 317 316 317 317 316 313 311 312 310 310 309 305 304 304 307 307 308 309 310 309 308 308 305 305
285 285 289 288 295 297 300 304 307 308 309 311 312 313 315 318 322 322 314 308 311 313 311 309 313 312 311 310 310 310 306 308 305 306 307 309 311 312 308 308 309 307 305
283 282 286 288 289 293 293 294 300 301 301 302 305 308 311 312 313 315 311 306 304 304 304 306 304 301 303 304 305 306 306 307 307 306 307 308 307 308 308 309 308 307 304
278 280 283 287 287 285 287 290 291 296 298 299 301 304 306 307 308 309 310 304 300 297 299 301 300 300 301 303 302 304 303 303 304 304 305 305 305 305 305 306 306 305 301
275 276 279 281 284 283 281 284 287 290 292 294 296 299 303 305 305 306 306 304 299 296 294 297 299 300 302 302 303 304 305 304 302 302 302 304 304 303 302 302 304 304 302
275 274 275 277 280 280 279 280 283 286 287 289 293 296 299 302 303 303 304 304 303 301 296 296 297 298 300 301 302 304 303 303 302 302 302 302 305 306 304 304 305 306 306
272 273 273 276 278 278 278 280 281 283 285 287 290 293 297 298 299 299 300 299 298 298 296 295 296 297 298 300 301 302 302 302 303 302 302 302 304 306 305 305 305 305 304
272 272 273 274 274 275 276 278 279 281 283 285 286 289 292 293 294 294 295 296 295 295 297 294 295 296 297 299 299 299 300 299 301 301 301 301 301 303 303 303 303 302 302
270 270 271 272 272 273 275 278 279 280 282 283 285 287 289 290 290 291 293 295 296 298 297 297 296 297 297 298 298 298 297 297 298 300 300 300 300 300 300 302 301 301 301
269 269 269 271 271 272 273 277 278 279 281 281 283 285 287 288 288 289 292 295 295 296 296 296 296 296 297 298 297 296 296 297 298 297 297 299 299 298 298 300 301 300 301
270 270 269 270 271 270 272 275 276 277 278 280 281 284 286 286 287 288 289 292 293 293 295 293 293 295 297 299 299 298 295 294 295 296 297 297 297 297 296 298 299 299 299
270 270 270 270 270 270 270 273 274 275 277 279 282 284 285 286 287 286 286 288 290 292 293 292 292 293 295 298 300 299 297 295 294 294 295 295 295 296 296 297 298 298 298
270 270 269 270 270 271 271 272 272 273 274 276 278 280 282 283 284 284 284 285 287 290 291 292 292 292 294 296 297 298 296 295 294 294 294 294 294 296 296 296 297 297 297
269 269 269 270 271 272 272 271 272 272 273 274 275 277 279 280 281 282 283 284 286 288 289 289 290 291 292 294 295 296 295 296 296 296 296 295 294 296 296 295 296 296 296
267 268 269 270 271 272 272 270 270 271 272 273 274 275 277 278 279 281 283 284 286 287 289 289 288 289 291 292 294 295 296 296 296 297 296 295 295 295 295 295 295 295 296
266 267 270 270 271 272 272 270 269 269 271 273 274 275 276 278 279 280 283 284 285 287 288 288 287 287 289 290 292 294 295 297 297 296 295 295 295 294 294 293 294 296 295
267 268 269 270 270 271 271 270 269 269 270 271 273 274 275 276 278 281 282 284 285 286 286 287 287 287 288 289 291 293 295 297 298 297 295 295 295 294 293 294 293 295 293
266 267 268 269 269 269 269 269 267 267 269 270 271 273 274 277 278 280 282 283 284 285 285 285 287 288 288 289 291 292 293 294 295 295 295 295 295 294 293 293 293 293 292
265 267 268 268 268 268 267 266 266 266 268 270 271 272 274 276 278 280 281 282 283 284 284 284 286 286 287 288 290 291 292 292 292 292 292 293 295 295 294 294 295 294 293
264 266 267 268 268 266 265 266 266 266 268 269 271 272 274 276 277 279 280 281 282 282 283 284 285 285 287 288 290 291 291 291 291 291 291 292 293 294 295 296 296 295 294
Height
5906 5905 5905 5904 5904 5903 5903 5903 5902 5902 5902 5902 5902 5902 5901 5901 5900 5899 5899 5899 5899 5898 5898 5898 5897 5897 5897 5896 5896 5896 5895 5895 5895 5895 5895 5894 5893 5892 5892 5891 5890 5890 5889
5906 5906 5906 5905 5905 5904 5904 5904 5903 5903 5903 5903 5903 5903 5902 5901 5901 5900 5899 5899 5899 5899 5899 5898 5898 5898 5897 5897 5897 5896 5896 5895 5895 5895 5894 5893 5893 5892 5891 5890 5890 5889 5888
5907 5907 5907 5906 5906 5905 5905 5905 5904 5904 5904 5904 5903 5903 5903 5902 5901 5901 5900 5900 5899 5899 5899 5899 5899 5898 5898 5897 5896 5896 5895 5895 5894 5894 5893 5893 5892 5891 5890 5889 5888 5887 5886
5907 5907 5907 5907 5906 5906 5906 5905 5905 5905 5905 5904 5904 5904 5903 5903 5902 5901 5900 5900 5900 5899 5899 5899 5899 5898 5898 5897 5896 5895 5894 5894 5893 5892 5891 5891 5890 5889 5889 5888 5886 5885 5884
5907 5907 5907 5907 5907 5906 5906 5906 5906 5905 5905 5905 5904 5904 5903 5903 5902 5901 5901 5900 5900 5899 5899 5898 5898 5897 5897 5896 5895 5894 5893 5893 5892 5891 5890 5889 5888 5887 5886 5886 5885 5883 5882
5907 5907 5906 5906 5906 5906 5906 5906 5905 5905 5905 5904 5904 5903 5903 5902 5902 5901 5901 5900 5899 5899 5898 5898 5897 5897 5896 5895 5894 5893 5892 5891 5890 5889 5888 5887 5886 5885 5884 5883 5882 5881 5880
5906 5906 5905 5905 5906 5906 5905 5905 5905 5905 5904 5904 5903 5903 5902 5902 5902 5901 5900 5899 5899 5898 5897 5897 5896 5896 5895 5894 5893 5891 5890 5889 5888 5887 5886 5885 5883 5882 5881 5880 5878 5878 5877
5905 5905 5905 5904 5904 5904 5904 5904 5904 5904 5903 5903 5903 5902 5902 5901 5901 5900 5899 5899 5898 5897 5896 5895 5895 5894 5893 5892 5891 5889 5888 5887 5886 5885 5884 5882 5881 5879 5878 5877 5875 5874 5874
5903 5903 5903 5903 5903 5903 5903 5903 5902 5902 5902 5902 5902 5901 5900 5900 5899 5898 5897 5897 5896 5896 5895 5894 5893 5892 5891 5890 5889 5887 5886 5885 5884 5882 5881 5879 5878 5876 5875 5874 5872 5872 5870
5901 5901 5900 5900 5901 5901 5900 5900 5901 5901 5900 5900 5900 5899 5899 5898 5897 5896 5896 5895 5894 5893 5892 5891 5890 5889 5888 5887 5886 5885 5884 5882 5881 5879 5878 5876 5875 5873 5872 5870 5869 5867 5866
5899 5899 5899 5898 5898 5898 5898 5898 5898 5898 5898 5898 5897 5897 5896 5895 5895 5894 5893 5892 5891 5891 5890 5889 5888 5886 5885 5884 5883 5882 5880 5879 5877 5876 5874 5873 5871 5870 5868 5867 5865 5863 5861
5896 5896 5896 5896 5895 5895 5895 5895 5895 5895 5895 5895 5894 5894 5893 5893 5892 5891 5890 5889 5888 5887 5886 5885 5884 5883 5882 5881 5880 5878 5876 5875 5874 5872 5871 5869 5867 5866 5864 5862 5860 5858 5856
5892 5892 5892 5892 5892 5892 5892 5892 5892 5891 5891 5891 5891 5890 5890 5889 5889 5888 5887 5886 5884 5883 5882 5881 5880 5879 5878 5877 5876 5874 5873 5871 5869 5868 5866 5864 5863 5861 5859 5857 5855 5853 5851
5888 5888 5887 5888 5888 5887 5887 5888 5887 5887 5887 5887 5887 5886 5886 5885 5884 5883 5882 5881 5880 5879 5878 5877 5876 5875 5874 5873 5871 5869 5868 5866 5864 5863 5861 5859 5857 5855 5853 5852 5850 5847 5845
5882 5882 5882 5882 5882 5882 5882 5882 5882 5882 5882 5882 5882 5882 5881 5880 5879 5879 5878 5877 5876 5875 5874 5873 5872 5871 5869 5868 5866 5864 5862 5860 5859 5857 5855 5853 5851 5849 5847 5845 5843 5841 5839
5875 5876 5877 5877 5877 5877 5877 5877 5877 5877 5877 5877 5876 5876 5876 5875 5874 5874 5873 5872 5871 5870 5869 5868 5867 5865 5864 5862 5860 5858 5856 5854 5852 5850 5849 5847 5845 5843 5841 5838 5836 5834 5831
5869 5870 5870 5870 5871 5871 5871 5872 5872 5871 5871 5871 5870 5870 5870 5869 5869 5868 5867 5867 5866 5864 5863 5862 5861 5859 5858 5856 5854 5851 5849 5848 5845 5843 5842 5840 5838 5836 5833 5831 5829 5826 5823
5862 5863 5863 5863 5864 5864 5864 5865 5865 5865 5864 5864 5864 5863 5863 5863 5862 5862 5861 5860 5859 5858 5857 5855 5854 5853 5851 5849 5847 5844 5842 5840 5837 5835 5834 5832 5830 5828 5825 5823 5821 5818 5815
5855 5855 5856 5856 5857 5857 5857 5858 5857 5857 5857 5857 5857 5856 5856 5856 5855 5855 5854 5853 5852 5851 5850 5848 5847 5845 5844 5842 5840 5837 5835 5833 5830 5828 5826 5824 5822 5820 5817 5815 5812 5810 5807
5847 5847 5848 5848 5849 5849 5849 5849 5849 5849 5849 5849 5849 5848 5848 5848 5847 5847 5846 5845 5844 5843 5842 5840 5839 5838 5836 5834 5832 5829 5827 5825 5822 5820 5818 5816 5814 5811 5808 5806 5803 5801 5798
5838 5839 5839 5840 5840 5841 5841 5840 5840 5841 5841 5840 5840 5840 5840 5839 5839 5838 5837 5836 5835 5834 5833 5832 5830 5829 5827 5825 5823 5821 5818 5816 5814 5812 5810 5807 5805 5802 5800 5797 5794 5791 5789
5829 5830 5830 5830 5831 5831 5831 5831 5831 5832 5832 5832 5832 5831 5831 5831 5830 5829 5828 5827 5826 5825 5824 5823 5821 5820 5818 5816 5814 5812 5810 5807 5805 5802 5800 5798 5795 5793 5790 5787 5784 5782 5779
5819 5820 5820 5821 5821 5821 5821 5821 5822 5822 5823 5823 5822 5822 5822 5821 5821 5820 5819 5818 5817 5815 5814 5813 5812 5811 5809 5807 5805 5803 5800 5798 5795 5793 5790 5788 5786 5783 5780 5778 5775 5772 5769
5809 5810 5810 5811 5811 5811 5811 5811 5812 5812 5813 5813 5812 5812 5812 5812 5811 5810 5810 5808 5807 5805 5804 5803 5802 5801 5799 5797 5795 5793 5791 5788 5785 5783 5781 5778 5775 5773 5770 5767 5764 5761 5759
5799 5799 5799 5799 5800 5800 5800 5801 5802 5802 5802 5802 5802 5802 5802 5802 5801 5801 5800 5798 5797 5795 5794 5793 5791 5790 5789 5787 5785 5782 5780 5778 5775 5773 5770 5768 5765 5762 5759 5756 5753 5750 5747
5788 5788 5788 5788 5789 5789 5790 5790 5791 5791 5791 5792 5792 5792 5791 5791 5790 5790 5789 5787 5786 5785 5783 5782 5781 5780 5778 5776 5774 5772 5770 5767 5764 5762 5759 5757 5754 5752 5749 5746 5743 5740 5737